Regional Weather Roundup
Issued by NWS

Home | Current Version | Previous Version | Text Only | Print | Product List | Glossary On
Versions: 1 2 3 4 5 6 7 8 9 10 11 12 13 14 15 16 17 18 19 20 21 22 23 24 25 26 27
000
ASUS45 KPSR 210310
RWRAZ

ARIZONA HOURLY REGIONAL WEATHER ROUNDUP
NATIONAL WEATHER SERVICE PHOENIX AZ
800 PM MST FRI OCT 20 2017

NOTE: FAIR INDICATES FEW OR NO CLOUDS BELOW 12,000 FEET WITH NO
SIGNIFICANT WEATHER AND/OR OBSTRUCTIONS TO VISIBILITY.

AZZ001>003-036-210400-
NORTHWEST ARIZONA

CITY           SKY/WX    TMP DP  RH WIND       PRES   REMARKS
BULLHEAD CITY  MOCLDY    77  36  22 S7        29.71R
KINGMAN        PTCLDY    64  34  32 SW3       29.83R
$$

AZZ004>008-015-016-018-210400-
NORTH CENTRAL ARIZONA

CITY           SKY/WX    TMP DP  RH WIND       PRES   REMARKS
GRAND CANYON   MOCLDY    52  35  52 SW10      29.93R
WILLIAMS       PTCLDY    52  36  54 W12       29.97R
PRESCOTT       MOCLDY    61  41  47 SW10      29.90R
FLAGSTAFF      MOCLDY    50  40  68 SW15G21   29.98R
PAYSON           N/A     59  39  47 SW8G16      N/A
PAGE           PTCLDY    67  30  25 SW12G22   29.75R
$$

AZZ009>014-017-210400-
NORTHEAST ARIZONA

CITY           SKY/WX    TMP DP  RH WIND       PRES   REMARKS
WINSLOW        PTCLDY    62  39  42 SW16      29.85R
SAINT JOHNS    MOCLDY    63  35  35 SW16G29   29.85F
WINDOW ROCK    CLEAR     59  30  33 SW20G32   29.89R
SHOW LOW       MOCLDY    59  34  38 SW18G25   29.96R
$$

AZZ540-542>544-546-548-210400-
GREATER PHOENIX AREA

CITY           SKY/WX    TMP DP  RH WIND       PRES   REMARKS
PHOENIX        PTCLDY    78  46  32 W6        29.73F
BUCKEYE        CLEAR     73  41  31 SW8       29.75R
GLENDALE       PTCLDY    77  45  31 CALM      29.76R
LUKE AFB       CLEAR     77  44  30 SW6       29.74R
DEER VALLEY    CLEAR     75  46  35 SW6       29.76R
SCOTTSDALE     CLEAR     77  45  32 W5        29.78S
MESA-FALCON    PTCLDY    75  45  33 W6        29.76R
MESA-GATEWAY   CLEAR     77  43  29 W8        29.77R
CHANDLER       CLEAR     77  43  29 SW10      29.75S
$$

AZZ539-553-210400-
SOUTHWEST MARICOPA COUNTY AND PINAL COUNTY

CITY           SKY/WX    TMP DP  RH WIND       PRES   REMARKS
CASA GRANDE    NOT AVBL
GILA BEND      PTCLDY    77  41  27 SW9       29.75R
$$

AZZ503-504-507>509-210400-
SOUTHEAST ARIZONA

CITY           SKY/WX    TMP DP  RH WIND       PRES   REMARKS
TUCSON         CLEAR     78  43  28 W8        29.86R
DAVIS-MONTHAN  PTCLDY    77  42  28 NW10G17   29.84R
RYAN FIELD     CLEAR     77  37  24 W10       29.86R
NOGALES        CLEAR     67  45  45 S7        29.94R
SIERRA VISTA   PTCLDY    71  42  34 S7G22     29.95F
DOUGLAS        PTCLDY    71  42  35 SW13      29.93S
SAFFORD        PTCLDY    77  37  23 NW13      29.78R
$$

AZZ532-210400-
SOUTHWEST ARIZONA

CITY           SKY/WX    TMP DP  RH WIND       PRES   REMARKS
YUMA           CLEAR     72  48  42 NW16G29   29.77R
$$

CAZ041-043-047-048-061-525>527-560>570-210400-
SOUTHERN CALIFORNIA

CITY           SKY/WX    TMP DP  RH WIND       PRES   REMARKS
DOWNTOWN L.A.  CLEAR     67  55  65 E5        29.90R
L.A. AIRPORT   PTCLDY    66  57  72 E7        29.90R
SAN DIEGO      MOCLDY    66  53  63 W8        29.97R
BURBANK        PTCLDY    68  38  33 CALM      29.91R
ONTARIO        PTCLDY    62  54  74 W10       29.91R
RIVERSIDE      CLEAR     62  55  77 W7        29.91R
PALM SPRINGS   CLEAR     77  45  32 VRB7      29.77R
EL CENTRO NAS  PTCLDY    72  47  40 W30       29.81R
IMPERIAL       PTCLDY    71  49  45 W23G30    29.78R
BLYTHE         CLEAR     74  50  42 S10       29.75R
NEEDLES        MOCLDY    78  33  19 NW13      29.73R
$$

NVZ020-UTZ003-210400-
SOUTHERN NEVADA-UTAH

CITY           SKY/WX    TMP DP  RH WIND       PRES   REMARKS
LAS VEGAS      MOCLDY    74  26  16 NW15G22   29.76R
SALT LAKE CITY PTCLDY    45  28  51 N5        29.94R
$$

NMZ009-TXZ055-210400-
NEW MEXICO-WEST TEXAS

CITY           SKY/WX    TMP DP  RH WIND       PRES   REMARKS
ALBUQUERQUE    CLOUDY    63  36  36 S12       29.81S
EL PASO        PTCLDY    76  36  23 SW13      29.86S
$$


........................KEY........................
SKY/WX - SKY CONDITION/WEATHER
TMP    - TEMPERATURE IN FAHRENHEIT
DP     - DEW POINT IN FAHRENHEIT
RH     - RELATIVE HUMIDITY IN PERCENT
WIND   - DIRECTION AND SPEED IN MILES PER HOUR (MPH)
VRB    - VARIABLE WIND DIRECTION
PRES   - MEAN SEA LEVEL PRESSURE IN INCHES OF MERCURY
         F - FALLING PRESSURE   R - RISING PRESSURE
         S - STEADY PRESSURE
VSB    - VISIBILITY IN MILES
HX     - HEAT INDEX IN FAHRENHEIT
WCI    - WIND CHILL INDEX IN FAHRENHEIT
TC     - TEMPERATURE IN CELSIUS WHICH IS ALSO KNOWN AS
         TEMPERATURE IN CENTIGRADE
AFB    - AIR FORCE BASE
         LUKE AFB IS LUKE AIR FORCE BASE
         DAVIS-MONTHAN IS DAVIS-MONTHAN AIR FORCE BASE
NAS    - NAVAL AIR STATION
         EL CENTRO NAS IS EL CENTRO NAVAL AIR STATION
N/A    - NOT AVAILABLE





USA.gov is the U.S. government's official web portal to all federal, state and local government web resources and services.